Location: Unspecified
(52.4292°N, 19.3359°E)
Time: 21:49:10
(UTC+02:00)

Tiros 1 - Pass Details

Date: 24 May 2024
Orbit: 624 x 657 km, 48.4° (Epoch: 16 June)

Event Time Altitude Azimuth Distance (km) Brightness Sun altitude
Rises 11:17:18 0° 202° (SSW) 2,959 10.8 54.7°
Reaches altitude 10° 11:20:21 10° 183° (S) 2,056 10.3 54.9°
Maximum altitude 11:23:21 17° 143° (SE) 1,652 10.2 55.2°
Drops below altitude 10° 11:26:23 10° 103° (ESE) 2,068 10.3 55.4°
Sets 11:29:26 0° 84° (E) 2,984 10.7 55.7°
